sim
Sign-in with your pilot id or email,
or register
Callsign
Passwort

Schedule Details

Flight Number: RYR6953
Departure: Glasgow Prestwick Airport (EGPK) at 06:10
Arrival: Fuerteventura Airport (GCFV) at 10:35
Route: Ryanair Passenger Schedule. Enter filed route here before submitting Pirep.

Weather Information
Getting current METAR information for EGPK 192150Z 00000KT CAVOK 12/08 Q1031
Getting current METAR information for GCFV 192200Z AUTO 36015KT 9999 FEW030 BKN045 18/12 Q1018

Schedule Frequency

Route Map